Location: B?ezina
(49.8085°N, 13.6013°E)
Time: 22:08:30
(UTC+00:00)

Cosmos 2341 Rocket - Pass Details

Date: 19 May 2025
Orbit: 966 x 1004 km, 82.9° (Epoch: 15 June)

Event Time Altitude Azimuth Distance (km) Brightness Sun altitude
Rises 19:51:59 0° 352° (N) 3,697 8.0 -8.6°
Reaches altitude 10° 19:54:36 10° 357° (N) 2,740 7.1 -8.9°
Maximum altitude 20:00:44 54° 75° (ENE) 1,167 4.3 -9.5°
Enters shadow 20:06:25 12° 151° (SSE) 2,568 5.6 -10.1°
